User: anonymous   Login
Location: Pleiades Observatory
(40.1297°N, 91.5238°W)
Time: 03:01:47
(UTC-05:00)
Language:

Cosmos 1842 Rocket - Orbit

View from above orbital plane
View from above orbital plane
View from above satellite
View from above satellite

Ground track
Ground track

The orbit data is extracted from the following two-line orbital elements,

1 17912U 87038B   17114.92555673 +.00000158 +00000-0 +16497-4 0  9997
2 17912 082.4998 100.3469 0021485 049.0909 311.2161 14.82925905598750
Epoch (UTC): 24 April 2017 22:12:48
Eccentricity: 0.0021485
inclination: 82.4998°
perigee height: 605 km
apogee height: 635 km
right ascension of ascending node: 100.3469°
argument of perigee: 49.0909°
revolutions per day: 14.82925905
mean anomaly at epoch: 311.2161°
orbit number at epoch: 59875

The dashed part of the orbit path shows where the satellite is in the earth's shadow,  

DLR